Location: Clifton Park
(41.4873°N, 81.8024°W)
Time: 13:32:24
(UTC+00:00)

Cosmos 1455 - Pass Details

Date: 21 January 2020
Orbit: 499 x 524 km, 82.5° (Epoch: 16 February)

Event Time Altitude Azimuth Distance (km) Brightness Sun altitude
Rises 00:37:27 0° 346° (NNW) 2,641 5.9 -24.0°
Reaches altitude 10° 00:39:39 10° 341° (NNW) 1,745 5.0 -24.4°
Maximum altitude 00:43:20 48° 266° (W) 677 3.1 -25.1°
Drops below altitude 10° 00:46:57 10° 192° (SSW) 1,716 5.0 -25.8°
Sets 00:49:06 0° 186° (S) 2,591 5.9 -26.2°
